sat.trackr.live / text

‹ back to catalog

STARLINK-34438

NORAD 65876 · 2025-223Y

PAYLOAD ACTIVE UNKNOWN

§ Identity

Operator
Country
US
Launch date
2025-10-03
Launch site
AFWTR
Launch vehicle
Mass (kg)
RCS (m²)

Purposes: comms

External: N2YO · Heavens-Above · Gunter

§ Orbital elements

Epoch: 2026-05-24T18:54:28.960416Z

Period
94.10 min
Inclination
53.1602°
Eccentricity
0.0001208
Mean motion
15.30208706 rev/d
Perigee alt
474.4 km
Apogee alt
476.0 km
Semi-major
6,853.3 km
B*
4.2121e-4
RAAN
300.9139°
Arg perigee
93.3773°
Mean anomaly
266.7366°
Rev number
3,585

§ Raw data

STARLINK-344381 65876U 25223Y   26144.78783519  .00012140  00000+0  42121-3 0  99912 65876  53.1602 300.9139 0001208  93.3773 266.7366 15.30208706 35858

JSON: /api/v1/satellites/65876 · /tle

For live sub-satellite position, see the globe view (requires WebGL).

§ Visibility from observer

Set your observer location to see the next 7 days of passes ≥ 10°. The values pass through the URL so the page stays shareable.

No JS? Fill the form by hand. The geolocation button needs JavaScript.